Location: Spring Creek
(38.2870°N, 100.2160°W)
Time: 09:22:09
(UTC+00:00)

Resurs 1-4 Rocket - Pass Details

Date: 08 May 2021
Orbit: 800 x 814 km, 98.6° (Epoch: 21 June)

Event Time Altitude Azimuth Distance (km) Brightness Sun altitude
Rises 07:21:25 0° 25° (NNE) 3,315 6.3 -33.6°
Reaches altitude 10° 07:24:05 10° 37° (NE) 2,380 5.2 -33.5°
Enters shadow 07:27:24 26° 74° (ENE) 1,549 3.8 -33.3°
